This is the latest recevied weather packets stored in our database for station/object W6ORV. If no packets are shown the sender has not sent any weather packets the latest 10 day(s).
| Time | Temp. | Humidity | Pressure | Rain* | Wind** | Luminosity | Snow |
|---|---|---|---|---|---|---|---|
| 1778163075 | 9.44° C | 97% | 4303.1 hPa | 0 mm | - | 39 W/m² | - |
| 1778162771 | 9.44° C | 97% | 4303 hPa | 0 mm | - | 37 W/m² | - |
| 1778162469 | 9.44° C | 98% | 4303 hPa | 0 mm | - | 34 W/m² | - |
| 1778162166 | 9.44° C | 98% | 4303.1 hPa | 0 mm | - | 33 W/m² | - |
| 1778161863 | 9.44° C | 98% | 4302.9 hPa | 0 mm | - | 28 W/m² | - |
| 1778161559 | 9.44° C | 98% | 4303 hPa | 0 mm | - | 27 W/m² | - |
| 1778161255 | 9.44° C | 98% | 4302.9 hPa | 0 mm | - | 23 W/m² | - |
| 1778160951 | 8.89° C | 98% | 4303 hPa | 0 mm | - | 20 W/m² | - |
| 1778160650 | 8.33° C | 98% | 4303 hPa | 0 mm | - | 16 W/m² | - |
| 1778160346 | 8.33° C | 98% | 4302.7 hPa | 0 mm | - | 14 W/m² | - |
| 1778160042 | 8.33° C | 98% | 4302.9 hPa | 0 mm | - | 10 W/m² | - |
| 1778159739 | 8.33° C | 98% | 4302.8 hPa | 0 mm | - | 7 W/m² | - |
| 1778159437 | 8.33° C | 98% | 4302.8 hPa | 0 mm | - | 4 W/m² | - |
| 1778159134 | 8.33° C | 98% | 4302.7 hPa | 0 mm | - | 3 W/m² | - |
| 1778158832 | 8.33° C | 98% | 4302.6 hPa | 0 mm | - | 0 W/m² | - |
| 1778158530 | 8.33° C | 98% | 4302.7 hPa | 0 mm | - | 0 W/m² | - |
| 1778158227 | 7.78° C | 97% | 4302.7 hPa | 0 mm | - | 0 W/m² | - |
| 1778157923 | 7.78° C | 97% | 4303 hPa | 0 mm | - | 0 W/m² | - |
| 1778157621 | 7.78° C | 97% | 4302.6 hPa | 0 mm | - | 0 W/m² | - |
| 1778157319 | 8.33° C | 97% | 4302.6 hPa | 0 mm | - | 0 W/m² | - |
| 1778157015 | 8.33° C | 97% | 4302.8 hPa | 0 mm | - | 0 W/m² | - |
| 1778156710 | 8.89° C | 97% | 4302.6 hPa | 0 mm | - | 0 W/m² | - |
| 1778156407 | 8.89° C | 97% | 4302.7 hPa | 0 mm | - | 0 W/m² | - |
| 1778156102 | 8.89° C | 97% | 4302.7 hPa | 0 mm | - | 0 W/m² | - |
| 1778155798 | 8.89° C | 97% | 4302.8 hPa | 0 mm | - | 0 W/m² | - |
* Rain latest hour (hover to see other rain measurements)
** Current wind speed in m/s (hover to see current wind gust speed)